STARLINK-4718, 53773

Orbit data source: Space-Track

STARLINK-4718, 53773 is a payload satellite owned by SpaceX/Seattle (US) in LEO that was launched on Sun, 11 Sep 2022 UTC via an FALCON 9 launch vehicle from the Air Force Eastern Test Range (AFETR). Payloads include a variety of satellites, spacecraft, and rockets equipped with specific instruments for various scientific and technological missions. These include communications satellites like Starlink; space stations such as the ISS; scientific satellites like the Hubble; Earth observation satellites from companies like Planet Labs, Umbra, and HawkEye 360; GPS; miniature CubeSats for education and research; and military/defense satellites.

Loading next visibility...
STARLINK-4718 details
Identifier
53773, 2022-111A
Orbit
LEO
Last TLE update13 hours ago
Origin
Flag of USSpaceX/Seattle (US)
ManufacturerSpaceX/Seattle
MissionOperational Commercial Communications
Bus & MotorSTARLINK, Unknown motor
Mass305 kg wet, ~290 kg dry
Launch date (UTC)
2022-09-11 (2 years ago)
Launch vehicle
FALCON 9
Launch site
Air Force Eastern Test Range (AFETR)
Object type
Payload
Rocket body
Debris
Shape & HBRBox + 1 Pan, 8.86 m
Radar Cross Section13.562 m², Large (>1 m²)

Expand to show TLE details & history

TLE from 13 hours ago
0 STARLINK-4718
1 53773U 22111A   24356.72085485  .00002112  00000-0  15070-3 0  9993
2 53773  53.2180 112.6053 0001323  90.1986 269.9158 15.08846644126977
Epoch: 2024-12-21T17:18Z
Definitive object data (Epoch: 2024-12-21T17:18:01.859Z)
Latitude0.00002°
Longitude122.32961°
Altitude540.622 km
Speed7.593 km/s
True Right ascension07h 30m 25s
True Declination0° 00' 00"
Sunlit
Object was in full shadow at TLE epoch
Visualization TLE readout
Latitude7.38762°
Longitude125.4745°
Altitude539.836 km
Speed7.594 km/s
Apparent Right ascension10h 43m 56s
Apparent Declination-36° 27' 34"
Sunlit
Object is in full shadow
Visualization observer readout
Local Sidereal Time05:08:14
Azimuth122.546° SE
Elevation-18.423°
Doppler factor1
Orbital elements
Apogee altitude540.883 km
Perigee altitude539.053 km
Semi-major axis6,918.105 km
Eccentricity0.0001323
Inclination53.218°
RAAN112.6053°
Arg. of periapsis90.1986°
True anomaly269.90064°
Mean anomaly269.9158°
Eccentric anomaly269.90822°
Mean motion3.77192 °/min
BSTAR0.0001507
Orbital period95.44 mins
Loading maneuver chart data...
Loading historical data...
Loading historical data...
Loading historical data...
Loading historical data...
Loading historical data...
Loading historical data...
Loading historical data...

STARLINK-4718 Visibility forecast

Observer location: undefined°, undefined

Span
Click to sort rows by Start time (UTC) header in descending order
Start Az.
Max El. time (UTC)
Max El. Az.
Max El.
End time (UTC)
End Az.
4 mins2024-12-22 09:20:32.617Z164.8° S2024-12-22 09:22:32.617Z135.143° SSE15.304°2024-12-22 09:24:32.617Z100.615° ESE
6 mins2024-12-22 10:59:32.617Z243.548° WSW2024-12-22 11:01:32.617Z283.346° WNW41.367°2024-12-22 11:05:32.617Z44.692° NE
4 mins2024-12-22 12:40:32.617Z316.274° NNW2024-12-22 12:41:32.617Z334.205° NNW16.979°2024-12-22 12:44:32.617Z23.609° NE
4 mins2024-12-22 16:01:32.617Z350.835° N2024-12-22 16:03:32.617Z33.687° NE21.195°2024-12-22 16:05:32.617Z69.42° E
6 mins2024-12-22 17:40:32.617Z302.439° NW2024-12-22 17:42:32.617Z257.506° W42.929°2024-12-22 17:46:32.617Z139.083° SSE
|